[[{"header":{"parameterUnit":"m.s-1","parameterCategory":1,"la1":30.2991,"la2":30.254,"lo1":-89.0895,"lo2":-89.0444,"dy":0.0017,"dx":0.0017,"nx":28,"ny":28,"refTime":"2024-10-10T09:00:00:Z","depth":0,"parameterNumber":2,"parameterNumberName":"U-component_of_WINDS"},"data":[0,0,0,0,0,0,0,0,0,0,0,0,0,0,0,0,0,0,0,0,0,0,0,0,0,0,0,0,0,0,0,0,0,0,0,0,0,0,0,0,0,0,0,0,0,0,0,0,0,0,0,0,0,0,0,0,0,0,-0.5595,-0.5594,0,-0.5508,-0.5507,-0.5506,-0.5488,-0.5489,-0.5489,-0.549,-0.5398,-0.5395,-0.5392,0,0,0,0,0,0,0,0,0,0,0,0,0,-0.5744,-0.5741,-0.5595,-0.5594,-0.5593,-0.5508,-0.5507,-0.5506,-0.5488,-0.5489,-0.549,-0.549,-0.5399,-0.5396,-0.5392,0,0,0,0,0,0,0,0,0,0,0,0,0,-0.567,-0.574,-0.5596,-0.5574,-0.5571,-0.5508,-0.5507,-0.5505,-0.5488,-0.5489,-0.549,-0.5491,-0.54,-0.5396,-0.5391,-0.5343,0,0,-0.5377,-0.5375,0,0,0,0,0,0,0,0,-0.5674,-0.5665,-0.5578,-0.5576,-0.5572,-0.551,-0.5526,-0.5451,-0.5488,-0.5519,-0.549,-0.5491,-0.5434,-0.5427,-0.5408,-0.5338,-0.5334,-0.5377,-0.5374,-0.5372,-0.5371,0,0,0,0,0,0,0,-0.5679,-0.5668,-0.5561,-0.5577,-0.5573,-0.5568,-0.5559,-0.5511,-0.5472,-0.5517,-0.5515,-0.5505,-0.5433,-0.5413,-0.5406,-0.5333,-0.5377,-0.5373,-0.537,-0.5368,-0.5217,-0.5216,0,0,0,0,0,0,-0.5689,-0.5673,-0.5564,-0.5558,-0.5627,-0.5564,-0.5554,-0.5529,-0.5473,-0.5465,-0.5505,-0.5505,-0.542,-0.5411,-0.5403,-0.5341,-0.5372,-0.5368,-0.5365,-0.5218,-0.5217,-0.5215,0,0,0,0,0,0,-0.5692,-0.5679,-0.5567,-0.5615,-0.56,-0.5561,-0.5533,-0.5527,-0.5507,-0.5464,-0.5456,-0.5491,-0.5421,-0.5409,-0.5358,-0.5337,-0.5366,-0.5362,-0.522,-0.5218,-0.5216,-0.5217,0,0,0,0,0,0,-0.5696,-0.5681,-0.5662,-0.5615,-0.5598,-0.5524,-0.5532,-0.5524,-0.5499,-0.5499,-0.5449,-0.5442,-0.5421,-0.5365,-0.5353,-0.5332,-0.5358,-0.5221,-0.5219,-0.5217,-0.5219,-0.5216,-0.5213,0,0,0,0,0,-0.5702,-0.5666,-0.5662,-0.5649,-0.5575,-0.5523,-0.5513,-0.549,-0.5498,-0.5478,-0.545,-0.5444,-0.5342,-0.5359,-0.5346,-0.5323,-0.5222,-0.522,-0.5217,-0.522,-0.5216,-0.5213,0,0,0,0,0,0,-0.5712,-0.566,-0.5654,-0.5602,-0.5567,-0.552,-0.5495,-0.5487,-0.5449,-0.545,-0.5422,-0.5411,-0.536,-0.5337,-0.5357,-0.5272,-0.5282,-0.5277,-0.5289,-0.5285,-0.5283,-0.5289,-0.5354,0,0,0,0,0,-0.5708,-0.5672,-0.5628,-0.5586,-0.5569,-0.5535,-0.5512,-0.5497,-0.546,-0.5445,-0.5413,-0.5376,-0.5335,-0.5309,-0.527,-0.5216,-0.5204,-0.5193,-0.519,-0.5188,-0.5183,-0.5151,-0.5146,-0.5206,-0.5206,-0.5206,0,0,-0.57,-0.5667,-0.5645,-0.5587,-0.5559,-0.552,-0.5523,-0.5483,-0.5453,-0.5438,-0.5387,-0.5363,-0.5319,-0.5266,-0.5241,-0.5245,-0.5164,-0.5185,-0.5183,-0.5179,-0.5148,-0.5142,-0.5137,-0.5204,-0.5205,-0.5205,0,0,-0.5665,-0.5637,-0.5599,-0.557,-0.5526,-0.5504,-0.5495,-0.5449,-0.5432,-0.5381,-0.5368,-0.5333,-0.5264,-0.5233,-0.5209,-0.5161,-0.5153,-0.5149,-0.5133,-0.5102,-0.5098,-0.5093,-0.5075,-0.5069,-0.5145,-0.5145,-0.5145,0,-0.566,-0.5603,-0.558,-0.554,-0.5514,-0.5499,-0.5459,-0.5432,-0.5377,-0.5359,-0.5364,-0.5277,-0.5247,-0.5185,-0.5174,-0.5155,-0.5142,-0.5154,-0.51,-0.5096,-0.5091,-0.5073,-0.5067,-0.5144,-0.5144,-0.5144,-0.5144,0,-0.5598,-0.5558,-0.5532,-0.548,-0.5452,-0.5412,-0.5382,-0.5355,-0.5343,-0.5319,-0.5266,-0.523,-0.5182,-0.5166,-0.5154,-0.5102,-0.5106,-0.5106,-0.5116,-0.5086,-0.5068,-0.5061,-0.5144,-0.5144,-0.5144,-0.5144,0,0,-0.5566,-0.5502,-0.5493,-0.5469,-0.542,-0.5388,-0.5347,-0.5301,-0.5278,-0.524,-0.5204,-0.5146,-0.5146,-0.5118,-0.5101,-0.5075,-0.5037,-0.5078,-0.5076,-0.507,-0.4977,-0.4976,-0.4968,-0.5032,-0.5031,-0.5029,-0.498,0,-0.5524,-0.5451,-0.5429,-0.5368,-0.533,-0.5315,-0.5278,-0.5244,-0.5221,-0.5184,-0.5159,-0.5117,-0.5121,-0.5104,-0.5076,-0.5048,-0.5018,-0.5051,-0.4996,-0.4995,-0.5007,-0.4959,-0.4959,-0.4913,-0.4973,-0.4972,-0.4971,0,-0.5466,-0.5428,-0.5363,-0.5317,-0.53,-0.5268,-0.5223,-0.519,-0.5149,-0.5134,-0.5103,-0.5088,-0.5043,-0.5056,-0.4993,-0.5016,-0.4992,-0.4975,-0.4972,-0.4965,-0.498,-0.495,-0.4899,-0.4891,-0.496,-0.4961,-0.4962,0,-0.5448,-0.538,-0.5332,-0.5312,-0.5258,-0.5236,-0.5212,-0.5173,-0.5146,-0.5107,-0.5089,-0.5044,-0.502,-0.4985,-0.4959,-0.4971,-0.4897,-0.4908,-0.4882,-0.4883,-0.4867,-0.4868,-0.481,-0.4854,-0.4854,-0.4854,-0.4854,0,-0.5402,-0.5363,-0.5323,-0.5293,-0.5248,-0.5222,-0.5178,-0.5153,-0.5118,-0.5082,-0.5067,-0.5033,-0.5001,-0.4963,-0.4942,-0.4891,-0.4881,-0.4866,-0.4861,-0.4867,-0.4869,-0.485,-0.4852,-0.4852,-0.4852,-0.4853,-0.4853,0,-0.5374,-0.5346,-0.5293,-0.5246,-0.5233,-0.5202,-0.5161,-0.5131,-0.5107,-0.5062,-0.505,-0.5012,-0.4967,-0.4937,-0.4879,-0.4864,-0.4809,-0.4805,-0.4823,-0.482,-0.4795,-0.4797,-0.4722,-0.471,-0.4764,-0.4763,-0.4763,0,-0.5346,-0.5315,-0.5266,-0.5241,-0.5217,-0.5177,-0.515,-0.5123,-0.5095,-0.5046,-0.5022,-0.4975,-0.4936,-0.4863,-0.483,-0.4785,-0.4779,-0.4756,-0.4772,-0.4779,-0.4777,-0.4778,-0.4774,-0.4753,-0.4752,-0.4752,-0.4752,0,-0.53,-0.5287,-0.5249,-0.5205,-0.5173,-0.5137,-0.5102,-0.5082,-0.5049,-0.5018,-0.4971,-0.4941,-0.4881,-0.4834,-0.4786,-0.476,-0.4749,-0.4747,-0.4738,-0.4743,-0.4754,-0.4746,-0.4814,-0.4748,-0.4749,-0.4749,-0.4749,-0.4749,-0.527,-0.5241,-0.5201,-0.5158,-0.5129,-0.5095,-0.5064,-0.5037,-0.4998,-0.4947,-0.4934,-0.4885,-0.4844,-0.4778,-0.4751,-0.4711,-0.4714,-0.4702,-0.4698,-0.4695,-0.4694,-0.4762,-0.4702,-0.4702,-0.4703,-0.4703,-0.4703,0,-0.5221,-0.5195,-0.5156,-0.5106,-0.5072,-0.5066,-0.5026,-0.4998,-0.4955,-0.4918,-0.488,-0.4825,-0.478,-0.4743,-0.4696,-0.4671,-0.4664,-0.4659,-0.466,-0.4654,-0.4695,-0.4707,-0.4665,-0.4665,-0.4665,-0.4665,-0.4665,-0.4665,-0.5192,-0.5142,-0.5125,-0.506,-0.5034,-0.4986,-0.4963,-0.4932,-0.4902,-0.4842,-0.4804,-0.4781,-0.4743,-0.4693,-0.465,-0.4641,-0.4623,-0.4618,-0.4607,-0.4647,-0.4651,-0.4655,-0.4666,-0.4615,-0.4615,-0.4569,-0.4568,-0.4568]},{"header":{"parameterUnit":"m.s-1","parameterCategory":1,"la1":30.2991,"la2":30.254,"lo1":-89.0895,"lo2":-89.0444,"dy":0.0017,"dx":0.0017,"nx":28,"ny":28,"refTime":"2024-10-10T09:00:00:Z","depth":0,"parameterNumber":3,"parameterNumberName":"V-component_of_WINDS"},"data":[0,0,0,0,0,0,0,0,0,0,0,0,0,0,0,0,0,0,0,0,0,0,0,0,0,0,0,0,0,0,0,0,0,0,0,0,0,0,0,0,0,0,0,0,0,0,0,0,0,0,0,0,0,0,0,0,0,0,-2.89,-2.89,0,-2.8892,-2.8892,-2.8892,-2.8854,-2.8853,-2.8852,-2.8851,-2.8841,-2.8842,-2.8842,0,0,0,0,0,0,0,0,0,0,0,0,0,-2.888,-2.8881,-2.89,-2.89,-2.89,-2.8892,-2.8892,-2.8892,-2.8854,-2.8853,-2.8852,-2.8851,-2.8841,-2.8841,-2.8842,0,0,0,0,0,0,0,0,0,0,0,0,0,-2.8882,-2.8881,-2.89,-2.888,-2.8878,-2.8892,-2.8892,-2.8892,-2.8854,-2.8853,-2.8851,-2.885,-2.8841,-2.8841,-2.8842,-2.8875,0,0,-2.8845,-2.8845,0,0,0,0,0,0,0,0,-2.8882,-2.8883,-2.8883,-2.8881,-2.8879,-2.8873,-2.8882,-2.8886,-2.8854,-2.8863,-2.8851,-2.8849,-2.8852,-2.8852,-2.8854,-2.8874,-2.8874,-2.8845,-2.8846,-2.8846,-2.8846,0,0,0,0,0,0,0,-2.8882,-2.8883,-2.8897,-2.8883,-2.888,-2.8871,-2.887,-2.8882,-2.8865,-2.8862,-2.8859,-2.8859,-2.8851,-2.8853,-2.8853,-2.8874,-2.8845,-2.8846,-2.8846,-2.8847,-2.8925,-2.8926,0,0,0,0,0,0,-2.8885,-2.8883,-2.8897,-2.8896,-2.8877,-2.8872,-2.8871,-2.8876,-2.8865,-2.8862,-2.886,-2.8857,-2.8852,-2.8852,-2.8853,-2.8893,-2.8846,-2.8847,-2.8847,-2.8923,-2.8925,-2.8927,0,0,0,0,0,0,-2.8885,-2.8887,-2.8897,-2.8889,-2.889,-2.8874,-2.888,-2.8877,-2.8878,-2.8864,-2.886,-2.8865,-2.8851,-2.8852,-2.8871,-2.8892,-2.8847,-2.8848,-2.8922,-2.8924,-2.8926,-2.8973,0,0,0,0,0,0,-2.8884,-2.8887,-2.8899,-2.889,-2.889,-2.8916,-2.8881,-2.8877,-2.888,-2.8876,-2.8868,-2.8865,-2.885,-2.887,-2.8872,-2.8893,-2.8849,-2.892,-2.8923,-2.8925,-2.8969,-2.8976,-2.8982,0,0,0,0,0,-2.8884,-2.8911,-2.89,-2.8902,-2.8905,-2.8917,-2.8917,-2.89,-2.8882,-2.8895,-2.8886,-2.8865,-2.8889,-2.8872,-2.8874,-2.8895,-2.8918,-2.8922,-2.8925,-2.8966,-2.8975,-2.8982,0,0,0,0,0,0,-2.8921,-2.8909,-2.8897,-2.8922,-2.8921,-2.891,-2.8925,-2.8909,-2.8913,-2.8909,-2.8887,-2.8885,-2.8909,-2.8903,-2.8884,-2.8928,-2.89,-2.8905,-2.8931,-2.8939,-2.8946,-2.8947,-2.8849,0,0,0,0,0,-2.8933,-2.8943,-2.8932,-2.8955,-2.8956,-2.8941,-2.8945,-2.8933,-2.893,-2.8929,-2.8922,-2.892,-2.8928,-2.8933,-2.8938,-2.8968,-2.8967,-2.8984,-2.8991,-2.8996,-2.9,-2.9019,-2.9027,-2.8938,-2.8938,-2.8938,0,0,-2.8956,-2.8951,-2.8958,-2.8963,-2.896,-2.8973,-2.8941,-2.8954,-2.8963,-2.8931,-2.895,-2.8944,-2.8941,-2.8967,-2.8977,-2.8963,-2.9025,-2.9,-2.9005,-2.9006,-2.9023,-2.9032,-2.9039,-2.8941,-2.894,-2.894,0,0,-2.9005,-2.9001,-2.9022,-2.9021,-2.9019,-2.9009,-2.9015,-2.9007,-2.9003,-2.9022,-2.8999,-2.9009,-2.9022,-2.9022,-2.9023,-2.9076,-2.9058,-2.9078,-2.9113,-2.9132,-2.9139,-2.9145,-2.9166,-2.9174,-2.9082,-2.9082,-2.9082,0,-2.9034,-2.9051,-2.9034,-2.905,-2.9054,-2.9027,-2.9049,-2.9048,-2.9048,-2.9051,-2.9035,-2.9053,-2.9049,-2.9076,-2.9089,-2.909,-2.9097,-2.9079,-2.9139,-2.9145,-2.915,-2.9171,-2.9179,-2.9085,-2.9084,-2.9084,-2.9084,0,-2.9089,-2.9102,-2.9118,-2.9121,-2.9127,-2.9145,-2.9131,-2.9138,-2.9126,-2.9119,-2.914,-2.9134,-2.914,-2.9145,-2.9131,-2.9171,-2.9162,-2.9143,-2.9115,-2.9162,-2.9181,-2.9188,-2.9089,-2.9088,-2.9087,-2.9086,0,0,-2.916,-2.9155,-2.9162,-2.9165,-2.9162,-2.9171,-2.9189,-2.9197,-2.9205,-2.9206,-2.9222,-2.9235,-2.9218,-2.922,-2.9207,-2.9223,-2.9269,-2.9202,-2.9201,-2.9217,-2.9315,-2.9331,-2.934,-2.9256,-2.9258,-2.9259,-2.9316,0,-2.9209,-2.9241,-2.9227,-2.9261,-2.9274,-2.9251,-2.9267,-2.9267,-2.9261,-2.9272,-2.9264,-2.9275,-2.9251,-2.9252,-2.9267,-2.926,-2.9288,-2.9255,-2.9272,-2.9273,-2.9276,-2.935,-2.9366,-2.9421,-2.9323,-2.9324,-2.9325,0,-2.9271,-2.9277,-2.9313,-2.9311,-2.9316,-2.9331,-2.9339,-2.9348,-2.9349,-2.9344,-2.9348,-2.9332,-2.935,-2.9322,-2.9349,-2.9327,-2.9333,-2.9331,-2.9332,-2.9335,-2.9303,-2.9357,-2.9437,-2.9446,-2.9336,-2.9335,-2.9334,0,-2.9323,-2.934,-2.9365,-2.9367,-2.9365,-2.9377,-2.9376,-2.9375,-2.9382,-2.9388,-2.9392,-2.94,-2.9405,-2.9411,-2.9398,-2.9378,-2.9428,-2.9397,-2.9425,-2.9426,-2.9438,-2.9438,-2.9523,-2.9438,-2.9438,-2.9438,-2.9438,0,-2.9381,-2.9404,-2.9389,-2.9404,-2.9431,-2.9415,-2.9441,-2.9438,-2.9438,-2.9453,-2.9431,-2.9446,-2.9427,-2.944,-2.9429,-2.9455,-2.9456,-2.9453,-2.9451,-2.9457,-2.9457,-2.9462,-2.9458,-2.944,-2.9439,-2.9439,-2.9439,0,-2.9444,-2.9434,-2.946,-2.9457,-2.9457,-2.9477,-2.9474,-2.9488,-2.9482,-2.9501,-2.9504,-2.9494,-2.9508,-2.9496,-2.9508,-2.9502,-2.9537,-2.9527,-2.9537,-2.9536,-2.9566,-2.9564,-2.9658,-2.9671,-2.9576,-2.9577,-2.9577,0,-2.9482,-2.95,-2.95,-2.951,-2.9511,-2.9525,-2.9533,-2.9518,-2.9527,-2.9531,-2.9546,-2.9558,-2.9568,-2.9592,-2.9586,-2.9596,-2.9588,-2.9621,-2.959,-2.9596,-2.9592,-2.9593,-2.9596,-2.9628,-2.9629,-2.963,-2.963,0,-2.9553,-2.9548,-2.956,-2.9572,-2.9582,-2.9589,-2.9595,-2.9604,-2.9589,-2.96,-2.9616,-2.9623,-2.9638,-2.9652,-2.9661,-2.966,-2.9644,-2.964,-2.9648,-2.9655,-2.9662,-2.9662,-2.9557,-2.9638,-2.9638,-2.9637,-2.9637,-2.9636,-2.9606,-2.9623,-2.9627,-2.9641,-2.9645,-2.9652,-2.9667,-2.9663,-2.9676,-2.9689,-2.9679,-2.9698,-2.9701,-2.9712,-2.9713,-2.9729,-2.9715,-2.9725,-2.9728,-2.9732,-2.9738,-2.9658,-2.973,-2.9729,-2.9729,-2.9729,-2.9729,0,-2.9678,-2.968,-2.9694,-2.9705,-2.9718,-2.9702,-2.9708,-2.972,-2.9738,-2.9742,-2.9753,-2.9773,-2.9787,-2.9782,-2.9795,-2.9808,-2.9801,-2.9812,-2.9812,-2.9813,-2.9747,-2.9741,-2.9818,-2.9818,-2.9818,-2.9818,-2.9818,-2.9818,-2.9717,-2.9746,-2.9742,-2.9772,-2.9773,-2.9794,-2.98,-2.9806,-2.981,-2.9834,-2.9846,-2.9844,-2.9845,-2.9858,-2.9871,-2.987,-2.9876,-2.9891,-2.9887,-2.9826,-2.9817,-2.9809,-2.9803,-2.9892,-2.9892,-2.9952,-2.9952,-2.9953]}]]